EST,Max TemperatureF,Mean TemperatureF,Min TemperatureF,Max Dew PointF,MeanDew PointF,Min DewpointF,Max Humidity, Mean Humidity, Min Humidity, Max Sea Level PressureIn, Mean Sea Level PressureIn, Min Sea Level PressureIn, Max VisibilityMiles, Mean VisibilityMiles, Min VisibilityMiles, Max Wind SpeedMPH, Mean Wind SpeedMPH, Max Gust SpeedMPH,PrecipitationIn, CloudCover, Events, WindDirDegrees
2014-1-1,47,41,34,34,28,24,75,60,45,30.38,30.28,30.14,10,10,9,22,2,31,0.00,2,,88
2014-1-2,47,36,24,45,35,10,96,76,55,30.14,29.91,29.76,10,6,0,35,9,44,0.26,7,Fog-Rain,293
2014-1-3,35,27,19,13,8,5,65,47,29,30.41,30.30,30.09,10,10,9,28,6,39,T,1,Snow,311
2014-1-4,33,28,23,22,13,9,60,48,36,30.46,30.36,30.23,10,10,10,14,8,18,0.00,6,,78
2014-1-5,42,38,33,41,35,24,100,81,61,30.22,30.07,29.76,10,2,0,12,6,15,0.09,8,Fog-Rain,89
2014-1-6,44,27,9,43,19,-5,100,72,43,30.38,30.02,29.74,10,9,0,28,16,38,0.09,5,Fog-Rain,285
2014-1-7,25,15,5,2,-2,-7,63,48,32,30.51,30.46,30.39,10,10,10,20,10,28,0.00,0,,278
2014-1-8,44,30,16,11,6,3,67,43,19,30.55,30.49,30.46,10,10,10,22,3,37,0.00,0,,122
2014-1-9,47,37,27,31,16,6,53,40,27,30.53,30.46,30.41,10,10,10,13,6,22,0.01,4,Rain,72
2014-1-10,48,43,38,46,43,33,100,93,85,30.38,30.21,30.04,10,2,0,14,9,18,0.55,8,Fog-Rain,79
2014-1-11,61,54,46,54,47,31,100,71,41,30.03,29.86,29.69,10,4,0,36,9,55,1.41,7,Fog-Rain-Thunderstorm,179
2014-1-12,55,46,36,36,32,29,82,60,38,30.18,30.10,29.92,10,10,10,17,6,23,0.00,0,,250
2014-1-13,56,45,34,45,38,30,93,66,38,30.17,30.03,29.91,10,6,2,9,3,62,0.32,5,Rain,109
2014-1-14,56,49,41,45,41,28,100,68,35,30.01,29.89,29.82,10,5,0,18,7,26,0.15,6,Fog-Rain,346
2014-1-15,46,38,30,32,23,11,82,54,25,30.04,29.97,29.93,10,10,10,18,8,25,0.00,2,,284
2014-1-16,42,33,24,17,12,7,63,43,23,30.10,30.03,29.98,10,10,10,15,7,18,0.00,0,,267
2014-1-17,51,39,27,27,18,11,69,47,24,30.06,29.98,29.89,10,10,10,29,9,36,0.00,0,,271
2014-1-18,39,31,23,11,9,6,59,43,27,30.18,30.08,30.01,10,10,10,22,8,29,0.00,2,,265
2014-1-19,51,40,29,25,21,10,69,51,32,30.08,30.02,29.95,10,10,10,21,7,38,0.00,2,,275
2014-1-20,61,49,36,26,24,23,59,42,25,30.03,29.96,29.87,10,10,10,17,8,22,0.00,0,,262
2014-1-21,50,36,21,29,22,10,70,54,37,29.99,29.83,29.71,10,10,10,26,13,37,0.00,3,,285
2014-1-22,33,24,15,8,0,-8,62,41,19,30.15,30.07,30.00,10,10,10,21,10,26,0.00,0,,283
2014-1-23,37,28,18,11,4,-5,54,40,26,30.49,30.31,30.14,10,10,10,20,10,25,0.00,0,,293
2014-1-24,32,21,10,-1,-6,-15,58,37,15,30.63,30.49,30.29,10,10,10,20,6,25,0.00,0,,286
2014-1-25,40,28,16,16,7,-4,54,41,27,30.25,29.99,29.84,10,10,10,22,10,31,0.00,3,,263
2014-1-26,52,40,27,26,22,17,69,52,35,30.00,29.94,29.90,10,10,10,18,7,30,0.00,0,,249
2014-1-27,59,46,33,33,27,4,76,52,28,30.06,29.93,29.88,10,10,10,20,7,31,T,3,Rain,272
2014-1-28,34,29,23,24,18,2,92,60,28,30.20,30.14,30.04,10,5,0,13,6,22,0.08,7,Fog-Snow,48
2014-1-29,32,24,16,18,8,1,88,57,26,30.34,30.26,30.15,10,10,10,13,4,20,0.00,2,,283
2014-1-30,38,27,15,15,11,6,80,56,32,30.38,30.30,30.22,10,9,7,9,3,20,0.00,0,,92
2014-1-31,55,38,21,18,11,3,84,49,14,30.24,30.19,30.14,10,10,8,10,3,28,0.00,0,,264